South St. Paul, MN

10:19 AM CDT on March 29, 2017 (GMT -0500)
South Saint Paul Municipal-Fleming

Weather History for KSGS - June, 2013

Change the Weather History Date:

Sunday, June 30, 2013

  Actual Average (KSTP) Record (KSTP)
Temperature  
Mean Temperature 71 °F -  
Max Temperature 82 °F 78 °F 95 °F (2002)
Min Temperature 60 °F 59 °F 55 °F (2010)
Cooling Degree Days 6    
Growing Degree Days 21 (Base 50)    
Moisture  
Dew Point 50 °F    
Average Humidity 49    
Maximum Humidity 76    
Minimum Humidity 26    
Precipitation  
Precipitation 0.00 in - - ()
Sea Level Pressure  
Sea Level Pressure 30.07 in    
Wind  
Wind Speed 5 mph (North)    
Max Wind Speed 12 mph    
Max Gust Speed 18 mph    
Visibility 10 miles    
Events      
Averages and records for this station are not official NWS values.
T = Trace of Precipitation, MM = Missing Value Source: NWS Daily Summary

Daily Weather History Graph

Daily Weather History Graph

Search for Another Location

Airport or City:

Trip Planner

Search our weather history database for the weather conditions in past years. The results will help you decide how hot, cold, wet, or windy it might be!

Date:

Astronomy

Jun. 30, 2013 Rise Set
Actual Time 5:29 AM CDT 9:02 PM CDT
Civil Twilight 4:52 AM CDT 9:39 PM CDT
Nautical Twilight 4:03 AM CDT 10:27 PM CDT
Astronomical Twilight 2:59 AM CDT 11:31 PM CDT
Moon 12:41 AM CDT (6/30) 2:06 PM CDT (6/30)
Length of Visible Light 16h 46m
Length of Day
15h 32m
Last Quarter, 45% of the Moon is Illuminated
Jun 30
Last Quarter
Jul 8
New
Jul 15
First Quarter
Jul 22
Full
Jul 29
Last Quarter

Hourly Weather History & Observations

Time (CDT) Temp. Dew Point Humidity Pressure Visibility Wind Dir Wind Speed Gust Speed Precip Events Conditions
12:13 AM 66.4 °F 50.0 °F 56% 29.98 in 10.0 mi NE 6.9 mph - N/A   Clear
12:34 AM 66.2 °F 48.2 °F 52% 29.99 in 10.0 mi NE 3.5 mph - N/A   Clear
12:53 AM 65.7 °F 47.7 °F 52% 30.00 in 10.0 mi Calm Calm - N/A   Clear
1:13 AM 64.9 °F 48.4 °F 55% 30.00 in 10.0 mi Calm Calm - N/A   Clear
1:34 AM 63.7 °F 49.1 °F 59% 30.00 in 10.0 mi North 3.5 mph - N/A   Clear
1:53 AM 63.3 °F 49.6 °F 61% 30.00 in 10.0 mi North 3.5 mph - N/A   Clear
2:14 AM 62.1 °F 50.0 °F 65% 30.01 in 10.0 mi NNW 4.6 mph - N/A   Clear
2:33 AM 61.9 °F 50.0 °F 65% 30.01 in 10.0 mi NNW 4.6 mph - N/A   Clear
2:53 AM 61.3 °F 49.1 °F 64% 30.02 in 10.0 mi NNW 4.6 mph - N/A   Clear
3:14 AM 62.1 °F 49.3 °F 63% 30.02 in 10.0 mi North 4.6 mph - N/A   Clear
3:33 AM 61.7 °F 49.8 °F 65% 30.02 in 10.0 mi North 6.9 mph - N/A   Clear
3:53 AM 63.0 °F 49.1 °F 61% 30.03 in 10.0 mi NNW 4.6 mph - N/A   Clear
4:14 AM 61.2 °F 50.5 °F 68% 30.03 in 10.0 mi North 3.5 mph - N/A   Clear
4:33 AM 61.2 °F 50.9 °F 69% 30.04 in 10.0 mi NNW 3.5 mph - N/A   Clear
4:54 AM 60.8 °F 51.1 °F 70% 30.05 in 10.0 mi NNW 3.5 mph - N/A   Clear
5:14 AM 60.4 °F 52.0 °F 74% 30.05 in 10.0 mi NNW 3.5 mph - N/A   Clear
5:33 AM 60.1 °F 52.3 °F 76% 30.05 in 10.0 mi North 3.5 mph - N/A   Clear
5:54 AM 60.8 °F 52.7 °F 75% 30.05 in 10.0 mi North 3.5 mph - N/A   Clear
6:14 AM 60.4 °F 52.9 °F 76% 30.06 in 10.0 mi North 4.6 mph - N/A   Clear
6:33 AM 61.7 °F 52.7 °F 72% 30.06 in 10.0 mi North 4.6 mph - N/A   Clear
6:54 AM 62.1 °F 52.3 °F 70% 30.07 in 10.0 mi North 4.6 mph - N/A   Clear
7:13 AM 63.0 °F 52.0 °F 67% 30.07 in 10.0 mi North 4.6 mph - N/A   Clear
7:34 AM 63.5 °F 52.5 °F 67% 30.08 in 10.0 mi North 5.8 mph - N/A   Clear
7:53 AM 63.7 °F 52.2 °F 66% 30.08 in 10.0 mi NNW 4.6 mph - N/A   Clear
8:13 AM 64.8 °F 52.2 °F 64% 30.09 in 10.0 mi North 4.6 mph - N/A   Clear
8:34 AM 66.2 °F 52.0 °F 60% 30.10 in 10.0 mi North 5.8 mph - N/A   Clear
8:53 AM 67.8 °F 52.5 °F 58% 30.10 in 10.0 mi NNW 6.9 mph - N/A   Clear
9:14 AM 69.4 °F 53.2 °F 56% 30.10 in 10.0 mi NNE 6.9 mph - N/A   Clear
9:34 AM 70.2 °F 54.1 °F 57% 30.10 in 10.0 mi North 6.9 mph - N/A   Clear
9:53 AM 71.4 °F 54.1 °F 54% 30.09 in 10.0 mi North 4.6 mph - N/A   Clear
10:14 AM 73.4 °F 53.1 °F 49% 30.09 in 10.0 mi North 4.6 mph - N/A   Clear
10:33 AM 74.5 °F 52.7 °F 46% 30.09 in 10.0 mi North 6.9 mph - N/A   Clear
10:54 AM 76.1 °F 46.8 °F 35% 30.09 in 10.0 mi NNE 10.4 mph - N/A   Clear
11:14 AM 76.8 °F 44.6 °F 32% 30.09 in 10.0 mi North 10.4 mph - N/A   Clear
11:33 AM 77.2 °F 43.5 °F 30% 30.09 in 10.0 mi NNE 11.5 mph - N/A   Clear
11:54 AM 77.9 °F 40.5 °F 26% 30.09 in 10.0 mi NE 9.2 mph - N/A   Clear
12:13 PM 78.3 °F 43.5 °F 29% 30.09 in 10.0 mi North 9.2 mph - N/A   Clear
12:34 PM 79.0 °F 45.3 °F 30% 30.09 in 10.0 mi North 9.2 mph 18.4 mph N/A   Clear
12:54 PM 79.5 °F 45.5 °F 30% 30.09 in 10.0 mi North 9.2 mph 17.3 mph N/A   Clear
1:13 PM 79.7 °F 47.1 °F 32% 30.08 in 10.0 mi NNE 10.4 mph 18.4 mph N/A   Clear
1:34 PM 80.2 °F 48.7 °F 33% 30.08 in 10.0 mi North 10.4 mph - N/A   Clear
1:54 PM 80.6 °F 49.5 °F 34% 30.08 in 10.0 mi NNE 11.5 mph 18.4 mph N/A   Scattered Clouds
2:13 PM 81.1 °F 52.0 °F 36% 30.08 in 10.0 mi ENE 10.4 mph 17.3 mph N/A   Clear
2:34 PM 80.8 °F 50.4 °F 35% 30.08 in 10.0 mi North 9.2 mph 17.3 mph N/A   Scattered Clouds
2:54 PM 81.1 °F 50.0 °F 34% 30.08 in 10.0 mi NNE 5.8 mph 16.1 mph N/A   Clear
3:14 PM 81.5 °F 51.1 °F 35% 30.08 in 10.0 mi NNE 10.4 mph - N/A   Scattered Clouds
3:34 PM 81.1 °F 50.0 °F 34% 30.07 in 10.0 mi North 5.8 mph - N/A   Scattered Clouds
3:53 PM 82.2 °F 49.6 °F 32% 30.07 in 10.0 mi ENE 8.1 mph - N/A   Scattered Clouds
4:14 PM 81.9 °F 48.9 °F 32% 30.07 in 10.0 mi ENE 8.1 mph - N/A   Clear
4:34 PM 82.4 °F 47.8 °F 30% 30.07 in 10.0 mi NE 6.9 mph - N/A   Clear
4:53 PM 82.9 °F 46.9 °F 28% 30.07 in 10.0 mi NNE 8.1 mph - N/A   Clear
5:14 PM 82.9 °F 46.4 °F 28% 30.07 in 10.0 mi NE 10.4 mph 16.1 mph N/A   Scattered Clouds
5:33 PM 82.8 °F 47.8 °F 29% 30.07 in 10.0 mi North 9.2 mph - N/A   Scattered Clouds
5:53 PM 82.4 °F 47.1 °F 29% 30.07 in 10.0 mi ENE 9.2 mph - N/A   Scattered Clouds
6:14 PM 82.4 °F 46.4 °F 28% 30.07 in 10.0 mi NE 5.8 mph - N/A   Clear
6:33 PM 81.9 °F 46.2 °F 29% 30.08 in 10.0 mi NE 6.9 mph - N/A   Clear
6:54 PM 81.7 °F 45.9 °F 28% 30.08 in 10.0 mi NE 6.9 mph - N/A   Clear
7:14 PM 81.5 °F 46.8 °F 29% 30.08 in 10.0 mi NNE 6.9 mph - N/A   Clear
7:34 PM 80.8 °F 47.7 °F 31% 30.08 in 10.0 mi North 6.9 mph - N/A   Clear
7:54 PM 80.6 °F 48.0 °F 32% 30.08 in 10.0 mi NNE 4.6 mph - N/A   Clear
8:13 PM 79.9 °F 50.5 °F 36% 30.08 in 10.0 mi Calm Calm - N/A   Clear
8:34 PM 79.7 °F 49.5 °F 35% 30.08 in 10.0 mi North 3.5 mph - N/A   Clear
8:54 PM 78.3 °F 51.1 °F 39% 30.08 in 10.0 mi Calm Calm - N/A   Clear
9:13 PM 76.8 °F 53.2 °F 44% 30.09 in 10.0 mi Calm Calm - N/A   Clear
9:34 PM 74.3 °F 56.1 °F 53% 30.09 in 10.0 mi Calm Calm - N/A   Clear
9:54 PM 72.5 °F 57.2 °F 59% 30.10 in 10.0 mi Calm Calm - N/A   Clear
10:14 PM 71.6 °F 58.3 °F 63% 30.10 in 10.0 mi Calm Calm - N/A   Clear
10:34 PM 71.2 °F 57.6 °F 62% 30.11 in 10.0 mi Calm Calm - N/A   Clear
10:53 PM 70.7 °F 57.6 °F 63% 30.11 in 10.0 mi Calm Calm - N/A   Clear
11:14 PM 70.0 °F 57.2 °F 64% 30.11 in 10.0 mi Calm Calm - N/A   Clear
11:34 PM 69.1 °F 57.4 °F 66% 30.11 in 10.0 mi Calm Calm - N/A   Clear
11:53 PM 68.5 °F 58.1 °F 69% 30.12 in 10.0 mi Calm Calm - N/A   Clear